Вернуться в каталог

STARLINK-34638

АктивенСвязьVLEO
NORAD 64762·PAYLOAD·🇺🇸 United States

Запущен Jul 8, 2025 с Cape Canaveral Space Force Station

Loading…

Ближайшие Пролёты (ближайшие 24 часа)

TLE

СвежийSource: CelesTrak SupGP

Эпоха: Sep 15, 2026, 03:32 UTC

1 64762C 25147H   26258.14770833 -.00024972  00000+0 -73792-3 0  2584
2 64762  53.1576  78.5723 0001203  88.2386  46.4829 15.34397660    15

Отслеживайте STARLINK-34638 в реальном времени с AllMySat

Download on the App Store